Weather History for Chicopee, MA

Change the Weather History Date:

Sunday, February 12, 2012

  Actual Average Record
Temperature  
Mean Temperature 19 °F -  
Max Temperature 26 °F 34 °F 53 °F (1999)
Min Temperature 12 °F 17 °F -12 °F (2014)
Degree Days  
Heating Degree Days 46    
Moisture  
Dew Point 1 °F    
Average Humidity 44    
Maximum Humidity 56    
Minimum Humidity 36    
Precipitation  
Precipitation 0.00 in - - ()
Sea Level Pressure  
Sea Level Pressure 29.77 in    
Wind  
Wind Speed 15 mph (NW)    
Max Wind Speed 23 mph    
Max Gust Speed 32 mph    
Visibility 10 miles    
Events      
Averages and records for this station are not official NWS values.
T = Trace of Precipitation, MM = Missing Value Source: NWS Daily Summary

Daily Weather History Graph

Daily Weather History Graph

Search for Another Location

Airport:

Trip Planner

Search our weather history database for the weather conditions in past years. The results will help you decide how hot, cold, wet, or windy it might be!

Date:

Astronomy

Feb. 12, 2012 Rise Set
Actual Time 6:51 AM EST 5:18 PM EST
Civil Twilight 6:22 AM EST 5:47 PM EST
Nautical Twilight 5:49 AM EST 6:20 PM EST
Astronomical Twilight 5:16 AM EST 6:52 PM EST
Moon 11:21 PM EST (2/12) 9:00 AM EST (2/12)
Length of Visible Light 11h 25m
Length of Day
10h 27m
Waning Gibbous, 72% of the Moon is Illuminated
Feb 12
Waning Gibbous
Feb 14
Last Quarter
Feb 21
New
Feb 29
First Quarter
Mar 8
Full

Hourly Weather History & Observations

Time (EST) Temp. Windchill Dew Point Humidity Pressure Visibility Wind Dir Wind Speed Gust Speed Precip Events Conditions
12:55 AM 23.0 °F 11.7 °F 0.7 °F 38% 29.66 in 10.0 mi NNW 11.5 mph 19.6 mph N/A   Scattered Clouds
1:55 AM 19.0 °F 4.0 °F -3.1 °F 38% 29.70 in 10.0 mi NNW 17.3 mph 23.0 mph N/A   Mostly Cloudy
2:55 AM 17.8 °F 4.6 °F -4.4 °F 37% 29.72 in 10.0 mi NNW 12.7 mph 19.6 mph N/A   Clear
3:55 AM 16.3 °F 1.6 °F 0.7 °F 50% 29.73 in 10.0 mi North 15.0 mph 20.7 mph N/A   Clear
4:55 AM 14.9 °F 0.9 °F -1.8 °F 48% 29.74 in 10.0 mi North 12.7 mph 24.2 mph N/A   Partly Cloudy
5:55 AM 13.1 °F 4.0 °F -1.7 °F 52% 29.74 in 10.0 mi North 5.8 mph - N/A   Clear
6:55 AM 12.9 °F -0.9 °F -0.2 °F 56% 29.75 in 10.0 mi WNW 11.5 mph - N/A   Clear
7:55 AM 14.5 °F -0.2 °F -2.0 °F 48% 29.77 in 10.0 mi WNW 13.8 mph - N/A   Clear
8:55 AM 17.2 °F 3.9 °F -1.5 °F 44% 29.78 in 10.0 mi WNW 12.7 mph - N/A   Partly Cloudy
9:55 AM 18.3 °F 5.9 °F -1.3 °F 42% 29.78 in 10.0 mi West 11.5 mph - N/A   Scattered Clouds
10:55 AM 21.7 °F 6.7 °F 0.3 °F 39% 29.77 in 10.0 mi NW 19.6 mph - N/A   Overcast
11:55 AM 21.9 °F 6.5 °F 2.3 °F 43% 29.74 in 10.0 mi WNW 20.7 mph 27.6 mph N/A   Mostly Cloudy
12:55 PM 24.8 °F 9.6 °F 2.1 °F 38% 29.72 in 10.0 mi WNW 23.0 mph 32.2 mph N/A   Scattered Clouds
1:55 PM 24.4 °F 9.9 °F 2.7 °F 39% 29.71 in 10.0 mi WNW 20.7 mph 32.2 mph N/A   Mostly Cloudy
2:55 PM 26.4 °F 12.8 °F 3.4 °F 37% 29.71 in 10.0 mi WNW 19.6 mph 28.8 mph N/A   Scattered Clouds
3:55 PM 26.2 °F 12.6 °F 2.3 °F 36% 29.71 in 10.0 mi WNW 19.6 mph 27.6 mph N/A   Scattered Clouds
4:55 PM 23.4 °F 7.7 °F 2.3 °F 40% 29.75 in 10.0 mi West 23.0 mph 28.8 mph N/A   Clear
5:55 PM 21.0 °F 4.6 °F 1.9 °F 44% 29.79 in 10.0 mi WNW 23.0 mph 31.1 mph N/A   Clear
6:55 PM 19.6 °F 4.7 °F 3.4 °F 50% 29.82 in 10.0 mi WNW 17.3 mph - N/A   Partly Cloudy
7:55 PM 18.9 °F 2.5 °F 2.1 °F 48% 29.85 in 10.0 mi WNW 20.7 mph 25.3 mph N/A   Clear
8:55 PM 17.6 °F 4.3 °F 1.6 °F 50% 29.88 in 10.0 mi WNW 12.7 mph - N/A   Clear
9:55 PM 17.4 °F 4.1 °F 1.0 °F 49% 29.90 in 10.0 mi NNW 12.7 mph - N/A   Scattered Clouds
10:55 PM 17.6 °F 5.0 °F 1.9 °F 50% 29.91 in 10.0 mi WNW 11.5 mph - N/A   Scattered Clouds
11:55 PM 18.1 °F 10.0 °F 1.9 °F 49% 29.91 in 10.0 mi WSW 5.8 mph - N/A   Overcast